STARLINK-4675 (53601 NORAD) Tracking and Keplerian Element Data

This shows tracking and keplerian element data for the satellite.

Feedback or suggestion? Click here.




ElementValue
Catalog53601
NameSTARLINK-4675
Epoch Orbit1309
Epoch Day325.25001157
Epoch Year2022
RAAN250.9175
Inclination53.2186
Eccentricity0.0001782
Argument of Perigee50.612
Mean Anonmoly85.5464
Mean Motion15.08813167
Decay Rate0.0005249
L11 53601U 22104P 22325.25001157 .00052490 00000+0 32941-2 0 9999
L22 53601 53.2186 250.9175 0001782 50.6120 85.5464 15.08813167 13098



Live tracking and technical data element details for STARLINK-4675 (NORAD 53601). STARLINK-4675 can be tracked NOW for your location showing map with azimuth and elevation plus other details from your city location.







IsCatalogInMostPopularTable: catalog: 53601, numindb: 4
Update: records affected: 1



GetName: 53601 STARLINK-4675

Hit Count: updated at: Thu, 08 Dec 2022 19:23:45 GMT